Location: Newark
(25.4297°S, 49.2719°W)
Time: 06:17:32
(UTC+00:00)

Vanguard 1 Rocket - Pass Details

Date: 27 November 2019
Orbit: 650 x 4226 km, 34.3° (Epoch: 14 December)

Event Time Altitude Azimuth Distance (km) Brightness Sun altitude
Rises 11:36:22 0° 354° (N) 4,340 10.8 42.3°
Reaches altitude 10° 11:39:55 10° 11° (NNE) 3,830 10.8 43.1°
Maximum altitude 11:47:10 20° 55° (NE) 3,955 11.5 44.7°
Drops below altitude 10° 11:57:50 10° 95° (E) 5,937 12.5 47.1°
Sets 12:05:30 0° 108° (ESE) 7,624 12.7 48.8°
